TimeEST,TemperatureF,Dew PointF,Humidity,Sea Level PressureIn,VisibilityMPH,Wind Direction,Wind SpeedMPH,Gust SpeedMPH,PrecipitationIn,Events,Conditions,WindDirDegrees,DateUTC
12:56 AM,30.0,14.0,51,30.22,10.0,Calm,Calm,-,N/A,,Clear,0,2013-02-19 05:56:00
1:56 AM,27.0,15.1,61,30.20,10.0,SW,5.8,-,N/A,,Clear,220,2013-02-19 06:56:00
2:56 AM,30.9,19.0,61,30.18,10.0,SSW,4.6,-,N/A,,Clear,210,2013-02-19 07:56:00
3:56 AM,26.1,18.0,71,30.16,10.0,Calm,Calm,-,N/A,,Clear,0,2013-02-19 08:56:00
5:56 AM,23.0,15.1,72,30.13,10.0,Calm,Calm,-,N/A,,Clear,0,2013-02-19 10:56:00
6:56 AM,24.1,16.0,71,30.11,10.0,South,4.6,-,N/A,,Clear,170,2013-02-19 11:56:00
7:56 AM,37.9,33.1,83,30.10,10.0,South,5.8,-,N/A,,Clear,190,2013-02-19 12:56:00
8:56 AM,42.1,33.1,70,30.09,10.0,SSW,10.4,-,N/A,,Clear,200,2013-02-19 13:56:00
9:56 AM,42.1,33.1,70,30.08,10.0,SSW,15.0,-,N/A,,Clear,200,2013-02-19 14:56:00
10:56 AM,44.1,35.1,71,30.04,10.0,South,16.1,25.3,N/A,,Clear,180,2013-02-19 15:56:00
11:56 AM,44.1,35.1,71,30.01,10.0,South,12.7,24.2,N/A,,Overcast,190,2013-02-19 16:56:00
12:56 PM,45.0,36.0,71,29.97,10.0,South,13.8,19.6,N/A,,Scattered Clouds,190,2013-02-19 17:56:00
1:56 PM,44.1,37.0,76,29.93,10.0,South,11.5,20.7,N/A,,Mostly Cloudy,190,2013-02-19 18:56:00
2:56 PM,43.0,39.0,86,29.88,10.0,South,11.5,-,0.03,Rain,Light Rain,190,2013-02-19 19:56:00
3:56 PM,43.0,39.9,89,29.84,8.0,South,8.1,-,0.02,Rain,Light Rain,190,2013-02-19 20:56:00
4:11 PM,42.8,39.2,87,29.82,5.0,South,10.4,-,0.03,Rain,Light Rain,180,2013-02-19 21:11:00
4:20 PM,44.6,39.2,81,29.81,7.0,South,12.7,-,0.03,Rain,Light Rain,170,2013-02-19 21:20:00
4:56 PM,44.1,41.0,89,29.78,5.0,South,10.4,-,0.07,Rain,Light Rain,170,2013-02-19 21:56:00
5:56 PM,46.9,44.1,90,29.75,10.0,South,17.3,25.3,0.04,Rain,Light Rain,190,2013-02-19 22:56:00
7:44 PM,44.6,42.8,93,29.70,9.0,SW,10.4,-,0.06,Rain,Light Rain,230,2013-02-20 00:44:00
7:56 PM,45.0,43.0,93,29.69,7.0,WSW,8.1,-,0.08,Rain,Rain,240,2013-02-20 00:56:00
8:24 PM,44.6,42.8,93,29.69,10.0,SW,6.9,-,0.01,Rain,Light Rain,230,2013-02-20 01:24:00
8:52 PM,42.8,41.0,93,29.67,5.0,WSW,9.2,-,0.02,,Overcast,240,2013-02-20 01:52:00
9:27 PM,42.8,41.0,93,29.66,4.0,West,6.9,-,N/A,,Overcast,260,2013-02-20 02:27:00
9:44 PM,42.8,41.0,93,29.66,8.0,WSW,8.1,-,0.00,Rain,Light Rain,250,2013-02-20 02:44:00
9:56 PM,43.0,41.0,93,29.67,10.0,WSW,8.1,-,0.00,Rain,Light Rain,250,2013-02-20 02:56:00
10:03 PM,42.8,41.0,93,29.67,10.0,WSW,8.1,-,0.00,,Overcast,250,2013-02-20 03:03:00
10:13 PM,42.8,41.0,93,29.66,10.0,West,8.1,-,0.00,,Overcast,260,2013-02-20 03:13:00
10:56 PM,43.0,39.0,86,29.67,10.0,West,10.4,-,0.00,,Overcast,280,2013-02-20 03:56:00
11:56 PM,41.0,32.0,70,29.68,10.0,West,16.1,-,N/A,,Scattered Clouds,280,2013-02-20 04:56:00